Time,TemperatureF,DewpointF,PressureIn,WindDirection,WindDirectionDegrees,WindSpeedMPH,WindSpeedGustMPH,Humidity,HourlyPrecipIn,Conditions,Clouds,dailyrainin,SoftwareType,DateUTC
2013-07-28 00:02:00,61.8,57.6,29.50,SSE,162,2.0,3.0,86,0.00,,,0.00,WeatherCatV1.20B785,2013-07-27 23:02:00,
2013-07-28 00:07:00,61.7,57.5,29.50,SSW,197,3.0,3.0,86,0.00,,,0.00,WeatherCatV1.20B785,2013-07-27 23:07:00,
2013-07-28 00:12:00,61.5,57.3,29.49,SE,143,1.0,2.0,86,0.00,,,0.00,WeatherCatV1.20B785,2013-07-27 23:12:00,
2013-07-28 00:17:00,61.3,57.4,29.49,SSW,205,1.0,3.0,87,0.00,,,0.00,WeatherCatV1.20B785,2013-07-27 23:17:00,
2013-07-28 00:22:00,61.2,57.3,29.49,SSW,197,0.0,1.0,87,0.00,,,0.00,WeatherCatV1.20B785,2013-07-27 23:22:00,
2013-07-28 00:27:00,61.0,57.4,29.49,SSE,154,2.0,2.0,88,0.00,,,0.00,WeatherCatV1.20B785,2013-07-27 23:27:00,
2013-07-28 00:32:00,60.9,57.3,29.49,SE,139,1.0,2.0,88,0.00,,,0.00,WeatherCatV1.20B785,2013-07-27 23:32:00,
2013-07-28 00:37:00,61.0,57.4,29.49,SE,128,1.0,1.0,88,0.00,,,0.00,WeatherCatV1.20B785,2013-07-27 23:37:00,
2013-07-28 00:42:00,61.1,57.5,29.49,SE,133,1.0,1.0,88,0.00,,,0.00,WeatherCatV1.20B785,2013-07-27 23:42:00,
2013-07-28 00:47:00,61.0,57.4,29.49,South,169,0.0,1.0,88,0.00,,,0.00,WeatherCatV1.20B785,2013-07-27 23:47:00,
2013-07-28 00:52:00,60.9,57.3,29.49,South,188,1.0,1.0,88,0.00,,,0.00,WeatherCatV1.20B785,2013-07-27 23:52:00,
2013-07-28 00:57:00,60.8,57.2,29.49,SE,129,2.0,2.0,88,0.00,,,0.00,WeatherCatV1.20B785,2013-07-27 23:57:00,
2013-07-28 01:02:00,60.7,57.1,29.49,South,172,1.0,3.0,88,0.00,,,0.00,WeatherCatV1.20B785,2013-07-28 00:02:00,
2013-07-28 01:07:00,60.6,57.0,29.50,SE,136,3.0,3.0,88,0.00,,,0.00,WeatherCatV1.20B785,2013-07-28 00:07:00,
2013-07-28 01:12:00,60.6,57.0,29.49,ESE,117,2.0,4.0,88,0.00,,,0.00,WeatherCatV1.20B785,2013-07-28 00:12:00,
2013-07-28 01:17:00,60.6,57.0,29.49,SE,142,3.0,4.0,88,0.00,,,0.00,WeatherCatV1.20B785,2013-07-28 00:17:00,
2013-07-28 01:22:00,60.6,57.0,29.49,SSE,155,2.0,3.0,88,0.00,,,0.00,WeatherCatV1.20B785,2013-07-28 00:22:00,
2013-07-28 01:27:00,60.6,57.0,29.49,SSE,157,1.0,2.0,88,0.00,,,0.00,WeatherCatV1.20B785,2013-07-28 00:27:00,
2013-07-28 01:32:00,60.5,56.9,29.49,SE,141,1.0,3.0,88,0.00,,,0.00,WeatherCatV1.20B785,2013-07-28 00:32:00,
2013-07-28 01:37:00,60.6,57.3,29.49,SSE,148,1.0,1.0,89,0.00,,,0.00,WeatherCatV1.20B785,2013-07-28 00:37:00,
2013-07-28 01:42:00,60.6,57.3,29.49,SSE,150,0.0,1.0,89,0.00,,,0.00,WeatherCatV1.20B785,2013-07-28 00:42:00,
2013-07-28 01:47:00,60.5,57.2,29.49,SSE,150,0.0,0.0,89,0.00,,,0.00,WeatherCatV1.20B785,2013-07-28 00:47:00,
2013-07-28 01:53:00,60.5,57.2,29.49,South,176,2.0,2.0,89,0.00,,,0.00,WeatherCatV1.20B785,2013-07-28 00:53:00,
2013-07-28 01:58:00,60.5,57.2,29.48,SSE,162,0.0,1.0,89,0.00,,,0.00,WeatherCatV1.20B785,2013-07-28 00:58:00,
2013-07-28 02:02:00,60.5,57.5,29.48,SE,136,0.0,1.0,90,0.00,,,0.00,WeatherCatV1.20B785,2013-07-28 01:02:00,
2013-07-28 02:08:00,60.5,57.5,29.48,SE,137,0.0,0.0,90,0.00,,,0.00,WeatherCatV1.20B785,2013-07-28 01:08:00,
2013-07-28 02:13:00,60.5,57.5,29.48,SE,136,0.0,0.0,90,0.00,,,0.00,WeatherCatV1.20B785,2013-07-28 01:13:00,
2013-07-28 02:18:00,60.4,57.5,29.49,SE,136,0.0,0.0,90,0.00,,,0.00,WeatherCatV1.20B785,2013-07-28 01:18:00,
2013-07-28 02:23:00,60.3,57.3,29.48,SSE,156,0.0,1.0,90,0.00,,,0.00,WeatherCatV1.20B785,2013-07-28 01:23:00,
2013-07-28 02:28:00,60.4,57.8,29.48,ESE,116,1.0,1.0,91,0.00,,,0.00,WeatherCatV1.20B785,2013-07-28 01:28:00,
2013-07-28 02:33:00,60.6,57.7,29.48,SE,129,2.0,2.0,90,0.00,,,0.00,WeatherCatV1.20B785,2013-07-28 01:33:00,
2013-07-28 02:38:00,60.7,57.8,29.48,SE,138,1.0,3.0,90,0.00,,,0.00,WeatherCatV1.20B785,2013-07-28 01:38:00,
2013-07-28 02:43:00,60.7,58.0,29.48,ESE,122,2.0,3.0,91,0.00,,,0.00,WeatherCatV1.20B785,2013-07-28 01:43:00,
2013-07-28 02:48:00,60.7,58.0,29.48,SE,130,1.0,1.0,91,0.00,,,0.00,WeatherCatV1.20B785,2013-07-28 01:48:00,
2013-07-28 02:53:00,60.7,58.0,29.48,SE,124,0.0,1.0,91,0.00,,,0.00,WeatherCatV1.20B785,2013-07-28 01:53:00,
2013-07-28 02:58:00,60.6,58.0,29.48,SE,136,0.0,2.0,91,0.00,,,0.00,WeatherCatV1.20B785,2013-07-28 01:58:00,
2013-07-28 03:03:00,60.5,58.2,29.48,SE,139,1.0,2.0,92,0.00,,,0.00,WeatherCatV1.20B785,2013-07-28 02:03:00,
2013-07-28 03:08:00,60.5,58.2,29.48,ESE,122,1.0,1.0,92,0.00,,,0.00,WeatherCatV1.20B785,2013-07-28 02:08:00,
2013-07-28 03:13:00,60.4,58.1,29.48,SE,134,0.0,2.0,92,0.00,,,0.00,WeatherCatV1.20B785,2013-07-28 02:13:00,
2013-07-28 03:18:00,60.3,58.0,29.47,ESE,121,0.0,0.0,92,0.00,,,0.00,WeatherCatV1.20B785,2013-07-28 02:18:00,
2013-07-28 03:23:00,60.3,58.0,29.47,ESE,121,1.0,1.0,92,0.00,,,0.00,WeatherCatV1.20B785,2013-07-28 02:23:00,
2013-07-28 03:28:00,60.2,57.9,29.47,SE,124,1.0,1.0,92,0.00,,,0.00,WeatherCatV1.20B785,2013-07-28 02:28:00,
2013-07-28 03:33:00,60.3,58.3,29.47,ESE,114,1.0,1.0,93,0.00,,,0.00,WeatherCatV1.20B785,2013-07-28 02:33:00,
2013-07-28 03:38:00,60.3,58.3,29.47,ESE,115,0.0,1.0,93,0.00,,,0.00,WeatherCatV1.20B785,2013-07-28 02:38:00,
2013-07-28 03:43:00,60.2,58.2,29.47,ESE,114,1.0,2.0,93,0.00,,,0.00,WeatherCatV1.20B785,2013-07-28 02:43:00,
2013-07-28 03:48:00,60.2,57.9,29.46,SSE,150,1.0,4.0,92,0.00,,,0.00,WeatherCatV1.20B785,2013-07-28 02:48:00,
2013-07-28 03:53:00,60.1,57.8,29.46,SE,131,2.0,3.0,92,0.00,,,0.00,WeatherCatV1.20B785,2013-07-28 02:53:00,
2013-07-28 03:58:00,60.0,57.7,29.46,SSE,152,2.0,4.0,92,0.00,,,0.00,WeatherCatV1.20B785,2013-07-28 02:58:00,
2013-07-28 04:03:00,60.0,57.7,29.46,SE,132,3.0,4.0,92,0.00,,,0.00,WeatherCatV1.20B785,2013-07-28 03:03:00,
2013-07-28 04:08:00,60.0,57.7,29.46,SSE,149,2.0,2.0,92,0.00,,,0.00,WeatherCatV1.20B785,2013-07-28 03:08:00,
2013-07-28 04:13:00,60.0,57.7,29.46,ESE,121,2.0,2.0,92,0.00,,,0.00,WeatherCatV1.20B785,2013-07-28 03:13:00,
2013-07-28 04:18:00,60.0,57.7,29.46,SE,141,2.0,3.0,92,0.00,,,0.00,WeatherCatV1.20B785,2013-07-28 03:18:00,
2013-07-28 04:23:00,60.0,57.7,29.46,SE,136,1.0,2.0,92,0.00,,,0.00,WeatherCatV1.20B785,2013-07-28 03:23:00,
2013-07-28 04:28:00,60.0,58.0,29.46,SE,130,2.0,3.0,93,0.00,,,0.00,WeatherCatV1.20B785,2013-07-28 03:28:00,
2013-07-28 04:33:00,60.0,58.0,29.46,SE,132,1.0,3.0,93,0.00,,,0.00,WeatherCatV1.20B785,2013-07-28 03:33:00,
2013-07-28 04:38:00,59.8,57.8,29.46,SSE,153,2.0,4.0,93,0.00,,,0.00,WeatherCatV1.20B785,2013-07-28 03:38:00,
2013-07-28 04:43:00,59.7,57.7,29.46,SE,146,4.0,5.0,93,0.00,,,0.00,WeatherCatV1.20B785,2013-07-28 03:43:00,
2013-07-28 04:48:00,59.6,57.6,29.46,SSE,148,3.0,4.0,93,0.00,,,0.00,WeatherCatV1.20B785,2013-07-28 03:48:00,
2013-07-28 04:53:00,59.5,57.5,29.45,SE,140,1.0,3.0,93,0.00,,,0.00,WeatherCatV1.20B785,2013-07-28 03:53:00,
2013-07-28 04:58:00,59.5,57.5,29.46,East,97,1.0,2.0,93,0.00,,,0.00,WeatherCatV1.20B785,2013-07-28 03:58:00,
2013-07-28 05:01:00,59.5,57.5,29.46,SE,128,0.0,1.0,93,0.00,,,0.00,WeatherCatV1.20B785,2013-07-28 04:01:00,
2013-07-28 05:06:00,59.4,57.4,29.45,SE,134,0.0,1.0,93,0.00,,,0.00,WeatherCatV1.20B785,2013-07-28 04:06:00,
2013-07-28 05:11:00,59.3,57.3,29.45,ESE,117,1.0,1.0,93,0.00,,,0.00,WeatherCatV1.20B785,2013-07-28 04:11:00,
2013-07-28 05:16:00,59.1,57.1,29.45,SSE,160,2.0,2.0,93,0.00,,,0.00,WeatherCatV1.20B785,2013-07-28 04:16:00,
2013-07-28 05:21:00,58.8,57.1,29.45,SE,146,4.0,6.0,94,0.00,,,0.00,WeatherCatV1.20B785,2013-07-28 04:21:00,
2013-07-28 05:26:00,58.8,56.8,29.45,SSE,148,3.0,5.0,93,0.00,,,0.00,WeatherCatV1.20B785,2013-07-28 04:26:00,
2013-07-28 05:31:00,58.8,56.8,29.45,SSE,159,4.0,5.0,93,0.00,,,0.00,WeatherCatV1.20B785,2013-07-28 04:31:00,
2013-07-28 05:36:00,58.8,56.8,29.45,SSE,163,3.0,6.0,93,0.00,,,0.00,WeatherCatV1.20B785,2013-07-28 04:36:00,
2013-07-28 05:41:00,58.9,56.9,29.45,SE,136,6.0,6.0,93,0.00,,,0.00,WeatherCatV1.20B785,2013-07-28 04:41:00,
2013-07-28 05:46:00,59.0,57.3,29.45,SSE,155,4.0,5.0,94,0.00,,,0.00,WeatherCatV1.20B785,2013-07-28 04:46:00,
2013-07-28 05:51:00,59.0,57.0,29.45,SE,135,4.0,6.0,93,0.00,,,0.00,WeatherCatV1.20B785,2013-07-28 04:51:00,
2013-07-28 05:56:00,59.1,57.1,29.45,South,172,4.0,5.0,93,0.00,,,0.00,WeatherCatV1.20B785,2013-07-28 04:56:00,
2013-07-28 06:01:00,59.2,57.2,29.45,SSE,160,3.0,4.0,93,0.00,,,0.00,WeatherCatV1.20B785,2013-07-28 05:01:00,
2013-07-28 06:06:00,59.3,57.3,29.45,SE,140,3.0,4.0,93,0.00,,,0.00,WeatherCatV1.20B785,2013-07-28 05:06:00,
2013-07-28 06:11:00,59.3,57.3,29.46,SSE,147,2.0,4.0,93,0.00,,,0.00,WeatherCatV1.20B785,2013-07-28 05:11:00,
2013-07-28 06:16:00,59.4,57.7,29.45,SE,128,2.0,6.0,94,0.00,,,0.00,WeatherCatV1.20B785,2013-07-28 05:16:00,
2013-07-28 06:21:00,59.5,57.8,29.45,SE,128,4.0,4.0,94,0.00,,,0.00,WeatherCatV1.20B785,2013-07-28 05:21:00,
2013-07-28 06:26:00,59.5,57.8,29.45,SE,139,2.0,3.0,94,0.00,,,0.00,WeatherCatV1.20B785,2013-07-28 05:26:00,
2013-07-28 06:31:00,59.4,57.7,29.45,SSE,155,3.0,5.0,94,0.00,,,0.00,WeatherCatV1.20B785,2013-07-28 05:31:00,
2013-07-28 06:36:00,59.5,57.8,29.45,SSE,152,3.0,4.0,94,0.00,,,0.00,WeatherCatV1.20B785,2013-07-28 05:36:00,
2013-07-28 06:41:00,59.5,57.8,29.45,SSE,148,3.0,4.0,94,0.00,,,0.00,WeatherCatV1.20B785,2013-07-28 05:41:00,
2013-07-28 06:46:00,59.6,57.9,29.45,SE,144,2.0,3.0,94,0.00,,,0.00,WeatherCatV1.20B785,2013-07-28 05:46:00,
2013-07-28 06:51:00,59.7,58.0,29.45,SE,130,2.0,4.0,94,0.00,,,0.00,WeatherCatV1.20B785,2013-07-28 05:51:00,
2013-07-28 06:56:00,59.7,58.0,29.45,SSE,147,2.0,4.0,94,0.00,,,0.00,WeatherCatV1.20B785,2013-07-28 05:56:00,
2013-07-28 07:02:00,59.7,58.0,29.45,South,176,3.0,4.0,94,0.00,,,0.00,WeatherCatV1.20B785,2013-07-28 06:02:00,
2013-07-28 07:07:00,59.7,58.0,29.45,SSE,152,2.0,3.0,94,0.00,,,0.00,WeatherCatV1.20B785,2013-07-28 06:07:00,
2013-07-28 07:12:00,59.7,58.0,29.45,SSE,166,3.0,3.0,94,0.00,,,0.00,WeatherCatV1.20B785,2013-07-28 06:12:00,
2013-07-28 07:17:00,59.6,57.9,29.45,SSE,163,3.0,4.0,94,0.00,,,0.00,WeatherCatV1.20B785,2013-07-28 06:17:00,
2013-07-28 07:22:00,59.5,57.8,29.45,ESE,114,2.0,3.0,94,0.00,,,0.00,WeatherCatV1.20B785,2013-07-28 06:22:00,
2013-07-28 07:27:00,59.4,57.7,29.45,ESE,112,2.0,3.0,94,0.00,,,0.00,WeatherCatV1.20B785,2013-07-28 06:27:00,
2013-07-28 07:32:00,59.5,57.8,29.45,ESE,115,1.0,2.0,94,0.00,,,0.00,WeatherCatV1.20B785,2013-07-28 06:32:00,
2013-07-28 07:37:00,59.6,57.9,29.45,SE,129,2.0,2.0,94,0.00,,,0.00,WeatherCatV1.20B785,2013-07-28 06:37:00,
2013-07-28 07:42:00,59.7,58.0,29.45,SSE,154,0.0,2.0,94,0.00,,,0.00,WeatherCatV1.20B785,2013-07-28 06:42:00,
2013-07-28 07:47:00,59.8,58.1,29.45,South,170,0.0,1.0,94,0.00,,,0.00,WeatherCatV1.20B785,2013-07-28 06:47:00,
2013-07-28 07:52:00,60.0,58.3,29.45,SSE,159,2.0,2.0,94,0.00,,,0.00,WeatherCatV1.20B785,2013-07-28 06:52:00,
2013-07-28 07:57:00,60.3,58.6,29.45,SSE,167,4.0,5.0,94,0.00,,,0.00,WeatherCatV1.20B785,2013-07-28 06:57:00,
2013-07-28 08:02:00,60.3,58.3,29.45,SE,141,4.0,6.0,93,0.00,,,0.00,WeatherCatV1.20B785,2013-07-28 07:02:00,
2013-07-28 08:07:00,60.3,58.3,29.45,SSE,153,2.0,3.0,93,0.00,,,0.00,WeatherCatV1.20B785,2013-07-28 07:07:00,
2013-07-28 08:12:00,60.4,58.4,29.45,SSE,162,5.0,7.0,93,0.00,,,0.00,WeatherCatV1.20B785,2013-07-28 07:12:00,
2013-07-28 08:17:00,60.6,58.3,29.45,South,174,3.0,9.0,92,0.00,,,0.00,WeatherCatV1.20B785,2013-07-28 07:17:00,
2013-07-28 08:22:00,60.9,58.6,29.45,SE,131,4.0,7.0,92,0.00,,,0.00,WeatherCatV1.20B785,2013-07-28 07:22:00,
2013-07-28 08:27:00,61.2,58.8,29.45,SE,131,2.0,4.0,92,0.00,,,0.00,WeatherCatV1.20B785,2013-07-28 07:27:00,
2013-07-28 08:32:00,61.4,58.8,29.45,SE,142,2.0,6.0,91,0.00,,,0.00,WeatherCatV1.20B785,2013-07-28 07:32:00,
2013-07-28 08:37:00,61.4,58.8,29.45,SE,136,1.0,6.0,91,0.00,,,0.00,WeatherCatV1.20B785,2013-07-28 07:37:00,
2013-07-28 08:42:00,61.8,59.1,29.45,SE,126,2.0,3.0,91,0.00,,,0.00,WeatherCatV1.20B785,2013-07-28 07:42:00,
2013-07-28 08:47:00,61.8,59.1,29.46,SE,143,3.0,5.0,91,0.00,,,0.00,WeatherCatV1.20B785,2013-07-28 07:47:00,
2013-07-28 08:52:00,62.0,59.3,29.45,South,186,5.0,8.0,91,0.00,,,0.00,WeatherCatV1.20B785,2013-07-28 07:52:00,
2013-07-28 08:57:00,62.3,59.6,29.45,South,184,4.0,6.0,91,0.00,,,0.00,WeatherCatV1.20B785,2013-07-28 07:57:00,
2013-07-28 09:02:00,62.4,59.4,29.45,SSE,152,4.0,7.0,90,0.00,,,0.00,WeatherCatV1.20B785,2013-07-28 08:02:00,
2013-07-28 09:07:00,62.2,59.2,29.46,SSE,165,3.0,5.0,90,0.00,,,0.00,WeatherCatV1.20B785,2013-07-28 08:07:00,
2013-07-28 09:12:00,62.3,59.3,29.46,South,179,4.0,6.0,90,0.00,,,0.00,WeatherCatV1.20B785,2013-07-28 08:12:00,
2013-07-28 09:17:00,62.4,59.4,29.45,SE,143,2.0,7.0,90,0.00,,,0.00,WeatherCatV1.20B785,2013-07-28 08:17:00,
2013-07-28 09:22:00,62.5,59.5,29.45,South,179,4.0,5.0,90,0.00,,,0.00,WeatherCatV1.20B785,2013-07-28 08:22:00,
2013-07-28 09:27:00,63.0,60.3,29.45,SW,222,4.0,4.0,91,0.00,,,0.00,WeatherCatV1.20B785,2013-07-28 08:27:00,
2013-07-28 09:32:00,63.4,60.1,29.45,South,172,6.0,10.0,89,0.00,,,0.00,WeatherCatV1.20B785,2013-07-28 08:32:00,
2013-07-28 09:37:00,63.7,60.4,29.45,SSW,194,5.0,8.0,89,0.00,,,0.00,WeatherCatV1.20B785,2013-07-28 08:37:00,
2013-07-28 09:42:00,63.5,59.9,29.45,SSE,166,6.0,9.0,88,0.00,,,0.00,WeatherCatV1.20B785,2013-07-28 08:42:00,
2013-07-28 09:47:00,63.7,60.1,29.45,South,174,9.0,11.0,88,0.00,,,0.00,WeatherCatV1.20B785,2013-07-28 08:47:00,
2013-07-28 09:52:00,64.2,60.6,29.45,South,170,4.0,11.0,88,0.00,,,0.00,WeatherCatV1.20B785,2013-07-28 08:52:00,
2013-07-28 09:57:00,64.2,59.9,29.45,SE,146,7.0,10.0,86,0.00,,,0.00,WeatherCatV1.20B785,2013-07-28 08:57:00,
2013-07-28 10:02:00,64.6,60.0,29.45,SSW,208,8.0,12.0,85,0.00,,,0.00,WeatherCatV1.20B785,2013-07-28 09:02:00,
2013-07-28 10:07:00,64.9,60.3,29.45,South,174,8.0,11.0,85,0.00,,,0.00,WeatherCatV1.20B785,2013-07-28 09:07:00,
2013-07-28 10:12:00,64.8,59.8,29.45,South,190,8.0,12.0,84,0.00,,,0.00,WeatherCatV1.20B785,2013-07-28 09:12:00,
2013-07-28 10:17:00,64.7,60.1,29.45,SSW,210,10.0,11.0,85,0.00,,,0.00,WeatherCatV1.20B785,2013-07-28 09:17:00,
2013-07-28 10:22:00,64.9,59.9,29.45,SSE,166,9.0,12.0,84,0.00,,,0.00,WeatherCatV1.20B785,2013-07-28 09:22:00,
2013-07-28 10:27:00,64.9,59.9,29.45,SSE,168,9.0,10.0,84,0.00,,,0.00,WeatherCatV1.20B785,2013-07-28 09:27:00,
2013-07-28 10:32:00,65.2,59.9,29.44,SSE,148,11.0,12.0,83,0.00,,,0.00,WeatherCatV1.20B785,2013-07-28 09:32:00,
2013-07-28 10:37:00,65.3,60.0,29.44,South,186,6.0,11.0,83,0.00,,,0.00,WeatherCatV1.20B785,2013-07-28 09:37:00,
2013-07-28 10:42:00,65.8,60.5,29.45,SSE,162,6.0,8.0,83,0.00,,,0.00,WeatherCatV1.20B785,2013-07-28 09:42:00,
2013-07-28 10:47:00,66.0,60.3,29.44,South,190,5.0,9.0,82,0.00,,,0.00,WeatherCatV1.20B785,2013-07-28 09:47:00,
2013-07-28 10:52:00,66.1,60.1,29.45,South,184,9.0,12.0,81,0.00,,,0.00,WeatherCatV1.20B785,2013-07-28 09:52:00,
2013-07-28 10:57:00,66.0,60.0,29.44,SSE,153,4.0,9.0,81,0.00,,,0.00,WeatherCatV1.20B785,2013-07-28 09:57:00,
2013-07-28 11:02:00,66.6,60.6,29.44,SSE,153,9.0,10.0,81,0.00,,,0.00,WeatherCatV1.20B785,2013-07-28 10:02:00,
2013-07-28 11:07:00,66.9,60.9,29.44,SW,220,7.0,9.0,81,0.00,,,0.00,WeatherCatV1.20B785,2013-07-28 10:07:00,
2013-07-28 11:12:00,67.2,60.5,29.44,South,186,9.0,10.0,79,0.00,,,0.00,WeatherCatV1.20B785,2013-07-28 10:12:00,
2013-07-28 11:17:00,67.0,60.6,29.44,SW,219,9.0,12.0,80,0.00,,,0.00,WeatherCatV1.20B785,2013-07-28 10:17:00,
2013-07-28 11:22:00,67.2,60.1,29.44,SSW,207,9.0,11.0,78,0.00,,,0.00,WeatherCatV1.20B785,2013-07-28 10:22:00,
2013-07-28 11:27:00,67.1,59.3,29.44,SSE,151,6.0,10.0,76,0.00,,,0.00,WeatherCatV1.20B785,2013-07-28 10:27:00,
2013-07-28 11:32:00,67.5,59.7,29.44,SSW,197,6.0,10.0,76,0.00,,,0.00,WeatherCatV1.20B785,2013-07-28 10:32:00,
2013-07-28 11:37:00,67.3,59.5,29.44,SSW,205,4.0,11.0,76,0.00,,,0.00,WeatherCatV1.20B785,2013-07-28 10:37:00,
2013-07-28 11:42:00,67.6,59.0,29.44,South,187,6.0,10.0,74,0.00,,,0.00,WeatherCatV1.20B785,2013-07-28 10:42:00,
2013-07-28 11:47:00,67.7,59.8,29.44,SE,132,5.0,9.0,76,0.00,,,0.00,WeatherCatV1.20B785,2013-07-28 10:47:00,
2013-07-28 11:52:00,68.1,60.2,29.43,SW,225,8.0,9.0,76,0.00,,,0.00,WeatherCatV1.20B785,2013-07-28 10:52:00,
2013-07-28 11:57:00,68.4,59.8,29.43,SSW,193,5.0,11.0,74,0.00,,,0.00,WeatherCatV1.20B785,2013-07-28 10:57:00,
2013-07-28 12:02:00,68.2,58.4,29.43,SSE,163,7.0,10.0,71,0.00,,,0.00,WeatherCatV1.20B785,2013-07-28 11:02:00,
2013-07-28 12:07:00,68.6,59.6,29.44,SE,146,4.0,8.0,73,0.00,,,0.00,WeatherCatV1.20B785,2013-07-28 11:07:00,
2013-07-28 12:12:00,69.1,60.5,29.43,SSE,157,5.0,8.0,74,0.00,,,0.00,WeatherCatV1.20B785,2013-07-28 11:12:00,
2013-07-28 12:17:00,68.8,59.0,29.43,SE,145,6.0,10.0,71,0.00,,,0.00,WeatherCatV1.20B785,2013-07-28 11:17:00,
2013-07-28 12:22:00,68.8,60.2,29.43,South,181,4.0,6.0,74,0.00,,,0.00,WeatherCatV1.20B785,2013-07-28 11:22:00,
2013-07-28 12:27:00,69.2,59.8,29.43,West,259,4.0,7.0,72,0.00,,,0.00,WeatherCatV1.20B785,2013-07-28 11:27:00,
2013-07-28 12:32:00,69.0,59.6,29.43,SSW,203,7.0,10.0,72,0.00,,,0.00,WeatherCatV1.20B785,2013-07-28 11:32:00,
2013-07-28 12:37:00,69.0,59.2,29.43,SW,236,5.0,8.0,71,0.00,,,0.00,WeatherCatV1.20B785,2013-07-28 11:37:00,
2013-07-28 12:42:00,68.6,58.4,29.43,SSW,203,4.0,5.0,70,0.00,,,0.00,WeatherCatV1.20B785,2013-07-28 11:42:00,
2013-07-28 12:47:00,69.0,59.2,29.43,WSW,242,5.0,7.0,71,0.00,,,0.00,WeatherCatV1.20B785,2013-07-28 11:47:00,
2013-07-28 12:52:00,68.9,59.1,29.43,West,260,2.0,7.0,71,0.00,,,0.00,WeatherCatV1.20B785,2013-07-28 11:52:00,
2013-07-28 12:57:00,69.2,59.0,29.43,SW,226,4.0,7.0,70,0.00,,,0.00,WeatherCatV1.20B785,2013-07-28 11:57:00,
2013-07-28 13:02:00,69.6,59.0,29.43,SW,225,6.0,9.0,69,0.00,,,0.00,WeatherCatV1.20B785,2013-07-28 12:02:00,
2013-07-28 13:07:00,69.7,58.2,29.42,SSW,193,6.0,8.0,67,0.00,,,0.00,WeatherCatV1.20B785,2013-07-28 12:07:00,
2013-07-28 13:12:00,69.9,59.7,29.42,SSW,210,4.0,8.0,70,0.00,,,0.00,WeatherCatV1.20B785,2013-07-28 12:12:00,
2013-07-28 13:17:00,70.2,59.1,29.42,South,190,4.0,6.0,68,0.00,,,0.00,WeatherCatV1.20B785,2013-07-28 12:17:00,
2013-07-28 13:22:00,70.6,59.9,29.43,SW,229,3.0,5.0,69,0.00,,,0.00,WeatherCatV1.20B785,2013-07-28 12:22:00,
2013-07-28 13:27:00,71.1,59.6,29.43,SSE,158,5.0,10.0,67,0.00,,,0.00,WeatherCatV1.20B785,2013-07-28 12:27:00,
2013-07-28 13:32:00,71.0,59.5,29.42,SSW,210,5.0,9.0,67,0.00,,,0.00,WeatherCatV1.20B785,2013-07-28 12:32:00,
2013-07-28 13:37:00,70.6,59.1,29.42,SSW,204,5.0,8.0,67,0.00,,,0.00,WeatherCatV1.20B785,2013-07-28 12:37:00,
2013-07-28 13:42:00,69.9,58.8,29.42,SW,232,5.0,7.0,68,0.00,,,0.00,WeatherCatV1.20B785,2013-07-28 12:42:00,
2013-07-28 13:47:00,69.4,59.6,29.42,SW,218,7.0,9.0,71,0.00,,,0.00,WeatherCatV1.20B785,2013-07-28 12:47:00,
2013-07-28 13:52:00,68.7,58.9,29.42,West,259,5.0,8.0,71,0.00,,,0.00,WeatherCatV1.20B785,2013-07-28 12:52:00,
2013-07-28 13:57:00,68.1,58.7,29.42,SW,231,6.0,8.0,72,0.00,,,0.00,WeatherCatV1.20B785,2013-07-28 12:57:00,
2013-07-28 14:02:00,67.9,58.5,29.42,SSW,208,2.0,7.0,72,0.00,,,0.00,WeatherCatV1.20B785,2013-07-28 13:02:00,
2013-07-28 14:07:00,67.8,58.4,29.42,SSW,203,6.0,7.0,72,0.00,,,0.00,WeatherCatV1.20B785,2013-07-28 13:07:00,
2013-07-28 14:12:00,67.6,57.5,29.42,South,169,5.0,8.0,70,0.00,,,0.00,WeatherCatV1.20B785,2013-07-28 13:12:00,
2013-07-28 14:17:00,67.4,56.9,29.42,West,266,4.0,7.0,69,0.00,,,0.00,WeatherCatV1.20B785,2013-07-28 13:17:00,
2013-07-28 14:22:00,67.3,56.8,29.42,SW,215,4.0,8.0,69,0.00,,,0.00,WeatherCatV1.20B785,2013-07-28 13:22:00,
2013-07-28 14:27:00,67.6,57.1,29.42,SSW,210,6.0,11.0,69,0.00,,,0.00,WeatherCatV1.20B785,2013-07-28 13:27:00,
2013-07-28 14:32:00,67.8,57.2,29.42,SSW,207,5.0,7.0,69,0.00,,,0.00,WeatherCatV1.20B785,2013-07-28 13:32:00,
2013-07-28 14:37:00,67.8,57.2,29.42,SW,225,5.0,8.0,69,0.00,,,0.00,WeatherCatV1.20B785,2013-07-28 13:37:00,
2013-07-28 14:42:00,67.7,57.5,29.42,South,174,6.0,9.0,70,0.00,,,0.00,WeatherCatV1.20B785,2013-07-28 13:42:00,
2013-07-28 14:47:00,67.6,57.1,29.42,South,188,7.0,7.0,69,0.00,,,0.00,WeatherCatV1.20B785,2013-07-28 13:47:00,
2013-07-28 14:52:00,67.3,57.6,29.43,SSW,210,3.0,6.0,71,0.00,,,0.00,WeatherCatV1.20B785,2013-07-28 13:52:00,
2013-07-28 14:57:00,67.1,57.8,29.43,South,181,6.0,10.0,72,0.00,,,0.00,WeatherCatV1.20B785,2013-07-28 13:57:00,
2013-07-28 15:02:00,66.7,58.5,29.44,SW,222,6.0,6.0,75,0.00,,,0.00,WeatherCatV1.20B785,2013-07-28 14:02:00,
2013-07-28 15:07:00,66.4,59.3,29.44,SSW,212,3.0,4.0,78,0.00,,,0.00,WeatherCatV1.20B785,2013-07-28 14:07:00,
2013-07-28 15:12:00,66.3,58.5,29.44,SSW,203,8.0,8.0,76,0.00,,,0.00,WeatherCatV1.20B785,2013-07-28 14:12:00,
2013-07-28 15:17:00,66.3,58.9,29.44,SW,228,8.0,8.0,77,0.00,,,0.00,WeatherCatV1.20B785,2013-07-28 14:17:00,
2013-07-28 15:22:00,66.0,57.8,29.44,SSW,200,4.0,9.0,75,0.00,,,0.00,WeatherCatV1.20B785,2013-07-28 14:22:00,
2013-07-28 15:27:00,66.0,58.2,29.44,SSW,201,9.0,9.0,76,0.00,,,0.00,WeatherCatV1.20B785,2013-07-28 14:27:00,
2013-07-28 15:32:00,65.8,58.0,29.44,SW,226,8.0,10.0,76,0.00,,,0.00,WeatherCatV1.20B785,2013-07-28 14:32:00,
2013-07-28 15:37:00,65.8,58.0,29.44,SW,231,7.0,9.0,76,0.00,,,0.00,WeatherCatV1.20B785,2013-07-28 14:37:00,
2013-07-28 15:42:00,65.8,57.7,29.44,SW,226,8.0,10.0,75,0.00,,,0.00,WeatherCatV1.20B785,2013-07-28 14:42:00,
2013-07-28 15:47:00,65.8,58.4,29.44,WSW,242,6.0,6.0,77,0.00,,,0.00,WeatherCatV1.20B785,2013-07-28 14:47:00,
2013-07-28 15:52:00,65.8,58.4,29.44,South,184,3.0,7.0,77,0.00,,,0.00,WeatherCatV1.20B785,2013-07-28 14:52:00,
2013-07-28 15:57:00,65.7,58.3,29.44,SSW,203,7.0,8.0,77,0.00,,,0.00,WeatherCatV1.20B785,2013-07-28 14:57:00,
2013-07-28 16:02:00,65.5,58.8,29.44,SW,219,4.0,8.0,79,0.00,,,0.00,WeatherCatV1.20B785,2013-07-28 15:02:00,
2013-07-28 16:07:00,65.4,58.7,29.44,SSW,203,5.0,7.0,79,0.00,,,0.00,WeatherCatV1.20B785,2013-07-28 15:07:00,
2013-07-28 16:12:00,65.4,58.3,29.44,South,184,4.0,6.0,78,0.00,,,0.00,WeatherCatV1.20B785,2013-07-28 15:12:00,
2013-07-28 16:17:00,65.4,58.3,29.43,SSW,195,3.0,8.0,78,0.00,,,0.00,WeatherCatV1.20B785,2013-07-28 15:17:00,
2013-07-28 16:22:00,65.4,58.3,29.43,WSW,250,4.0,7.0,78,0.00,,,0.00,WeatherCatV1.20B785,2013-07-28 15:22:00,
2013-07-28 16:27:00,65.4,58.7,29.43,SSW,212,5.0,6.0,79,0.00,,,0.00,WeatherCatV1.20B785,2013-07-28 15:27:00,
2013-07-28 16:32:00,65.3,58.6,29.43,WSW,239,3.0,7.0,79,0.00,,,0.00,WeatherCatV1.20B785,2013-07-28 15:32:00,
2013-07-28 16:37:00,65.2,58.5,29.43,SW,221,3.0,8.0,79,0.00,,,0.00,WeatherCatV1.20B785,2013-07-28 15:37:00,
2013-07-28 16:42:00,65.2,58.5,29.43,SSW,194,6.0,7.0,79,0.00,,,0.00,WeatherCatV1.20B785,2013-07-28 15:42:00,
2013-07-28 16:47:00,65.4,59.1,29.43,South,176,6.0,7.0,80,0.00,,,0.00,WeatherCatV1.20B785,2013-07-28 15:47:00,
2013-07-28 16:52:00,65.2,58.9,29.43,SW,229,4.0,7.0,80,0.00,,,0.00,WeatherCatV1.20B785,2013-07-28 15:52:00,
2013-07-28 16:57:00,65.1,58.8,29.43,SW,217,5.0,7.0,80,0.00,,,0.00,WeatherCatV1.20B785,2013-07-28 15:57:00,
2013-07-28 17:02:00,65.2,58.9,29.42,SSW,208,4.0,4.0,80,0.00,,,0.00,WeatherCatV1.20B785,2013-07-28 16:02:00,
2013-07-28 17:07:00,65.0,58.7,29.43,South,170,5.0,6.0,80,0.00,,,0.00,WeatherCatV1.20B785,2013-07-28 16:07:00,
2013-07-28 17:12:00,65.0,59.0,29.43,SW,215,4.0,6.0,81,0.00,,,0.00,WeatherCatV1.20B785,2013-07-28 16:12:00,
2013-07-28 17:17:00,65.0,59.4,29.43,SSW,200,4.0,4.0,82,0.00,,,0.00,WeatherCatV1.20B785,2013-07-28 16:17:00,
2013-07-28 17:22:00,64.9,58.9,29.43,SW,217,5.0,6.0,81,0.00,,,0.00,WeatherCatV1.20B785,2013-07-28 16:22:00,
2013-07-28 17:27:00,64.8,58.8,29.43,SSW,193,4.0,7.0,81,0.00,,,0.00,WeatherCatV1.20B785,2013-07-28 16:27:00,
2013-07-28 17:32:00,65.0,59.0,29.43,SSW,213,6.0,9.0,81,0.00,,,0.00,WeatherCatV1.20B785,2013-07-28 16:32:00,
2013-07-28 17:37:00,64.9,59.3,29.43,SSW,203,5.0,6.0,82,0.00,,,0.00,WeatherCatV1.20B785,2013-07-28 16:37:00,
2013-07-28 17:42:00,64.8,58.8,29.43,SSW,203,4.0,7.0,81,0.00,,,0.00,WeatherCatV1.20B785,2013-07-28 16:42:00,
2013-07-28 17:47:00,64.8,59.2,29.43,SSW,193,3.0,7.0,82,0.00,,,0.00,WeatherCatV1.20B785,2013-07-28 16:47:00,
2013-07-28 17:52:00,65.1,59.1,29.43,SSW,205,4.0,7.0,81,0.00,,,0.00,WeatherCatV1.20B785,2013-07-28 16:52:00,
2013-07-28 17:57:00,65.4,59.1,29.43,SSW,207,5.0,7.0,80,0.00,,,0.00,WeatherCatV1.20B785,2013-07-28 16:57:00,
2013-07-28 18:02:00,66.0,59.7,29.43,SW,234,4.0,7.0,80,0.00,,,0.00,WeatherCatV1.20B785,2013-07-28 17:02:00,
2013-07-28 18:07:00,66.6,59.2,29.44,SSW,207,5.0,11.0,77,0.00,,,0.00,WeatherCatV1.20B785,2013-07-28 17:07:00,
2013-07-28 18:12:00,67.6,59.4,29.44,SW,224,5.0,8.0,75,0.00,,,0.00,WeatherCatV1.20B785,2013-07-28 17:12:00,
2013-07-28 18:17:00,68.0,56.6,29.43,SSW,205,9.0,11.0,67,0.00,,,0.00,WeatherCatV1.20B785,2013-07-28 17:17:00,
2013-07-28 18:22:00,68.1,56.3,29.44,SW,217,8.0,11.0,66,0.00,,,0.00,WeatherCatV1.20B785,2013-07-28 17:22:00,
2013-07-28 18:27:00,68.2,57.2,29.44,SW,228,8.0,10.0,68,0.00,,,0.00,WeatherCatV1.20B785,2013-07-28 17:27:00,
2013-07-28 18:32:00,68.1,56.3,29.44,SSW,204,5.0,10.0,66,0.00,,,0.00,WeatherCatV1.20B785,2013-07-28 17:32:00,
2013-07-28 18:37:00,68.0,58.2,29.44,South,180,5.0,7.0,71,0.00,,,0.00,WeatherCatV1.20B785,2013-07-28 17:37:00,
2013-07-28 18:42:00,68.1,58.3,29.44,SW,231,8.0,8.0,71,0.00,,,0.00,WeatherCatV1.20B785,2013-07-28 17:42:00,
2013-07-28 18:47:00,67.7,58.7,29.44,SW,217,4.0,8.0,73,0.00,,,0.00,WeatherCatV1.20B785,2013-07-28 17:47:00,
2013-07-28 18:52:00,66.9,58.3,29.44,SW,233,4.0,7.0,74,0.00,,,0.00,WeatherCatV1.20B785,2013-07-28 17:52:00,
2013-07-28 18:57:00,66.5,58.3,29.44,SW,228,5.0,7.0,75,0.00,,,0.00,WeatherCatV1.20B785,2013-07-28 17:57:00,
2013-07-28 19:02:00,66.6,58.8,29.44,SSW,207,9.0,9.0,76,0.00,,,0.00,WeatherCatV1.20B785,2013-07-28 18:02:00,
2013-07-28 19:07:00,66.8,58.6,29.44,WSW,249,4.0,8.0,75,0.00,,,0.00,WeatherCatV1.20B785,2013-07-28 18:07:00,
2013-07-28 19:12:00,67.1,58.5,29.44,West,267,5.0,8.0,74,0.00,,,0.00,WeatherCatV1.20B785,2013-07-28 18:12:00,
2013-07-28 19:17:00,67.1,58.5,29.44,SW,236,7.0,8.0,74,0.00,,,0.00,WeatherCatV1.20B785,2013-07-28 18:17:00,
2013-07-28 19:22:00,67.5,58.9,29.44,SW,236,3.0,10.0,74,0.00,,,0.00,WeatherCatV1.20B785,2013-07-28 18:22:00,
2013-07-28 19:27:00,67.7,59.1,29.44,WSW,246,3.0,6.0,74,0.00,,,0.00,WeatherCatV1.20B785,2013-07-28 18:27:00,
2013-07-28 19:32:00,67.7,59.1,29.44,SW,228,3.0,8.0,74,0.00,,,0.00,WeatherCatV1.20B785,2013-07-28 18:32:00,
2013-07-28 19:37:00,67.9,59.3,29.44,West,274,5.0,8.0,74,0.00,,,0.00,WeatherCatV1.20B785,2013-07-28 18:37:00,
2013-07-28 19:42:00,67.6,59.4,29.45,SW,221,5.0,9.0,75,0.00,,,0.00,WeatherCatV1.20B785,2013-07-28 18:42:00,
2013-07-28 19:47:00,67.1,59.3,29.45,WSW,246,9.0,11.0,76,0.00,,,0.00,WeatherCatV1.20B785,2013-07-28 18:47:00,
2013-07-28 19:52:00,66.6,59.5,29.45,SSW,200,4.0,9.0,78,0.00,,,0.00,WeatherCatV1.20B785,2013-07-28 18:52:00,
2013-07-28 19:57:00,66.7,60.0,29.45,SW,218,10.0,10.0,79,0.00,,,0.00,WeatherCatV1.20B785,2013-07-28 18:57:00,
2013-07-28 20:02:00,66.3,59.9,29.45,WSW,245,5.0,8.0,80,0.00,,,0.00,WeatherCatV1.20B785,2013-07-28 19:02:00,
2013-07-28 20:07:00,66.3,60.3,29.45,SSW,212,4.0,7.0,81,0.00,,,0.00,WeatherCatV1.20B785,2013-07-28 19:07:00,
2013-07-28 20:12:00,66.1,60.1,29.45,West,266,4.0,8.0,81,0.00,,,0.00,WeatherCatV1.20B785,2013-07-28 19:12:00,
2013-07-28 20:17:00,66.0,60.0,29.45,WSW,255,5.0,6.0,81,0.00,,,0.00,WeatherCatV1.20B785,2013-07-28 19:17:00,
2013-07-28 20:22:00,66.1,60.1,29.45,SW,226,4.0,7.0,81,0.00,,,0.00,WeatherCatV1.20B785,2013-07-28 19:22:00,
2013-07-28 20:27:00,66.4,60.0,29.45,WSW,249,5.0,6.0,80,0.00,,,0.00,WeatherCatV1.20B785,2013-07-28 19:27:00,
2013-07-28 20:32:00,66.5,59.8,29.45,South,180,3.0,8.0,79,0.00,,,0.00,WeatherCatV1.20B785,2013-07-28 19:32:00,
2013-07-28 20:37:00,66.5,59.8,29.45,West,264,5.0,8.0,79,0.00,,,0.00,WeatherCatV1.20B785,2013-07-28 19:37:00,
2013-07-28 20:42:00,66.2,59.8,29.45,West,271,4.0,8.0,80,0.00,,,0.00,WeatherCatV1.20B785,2013-07-28 19:42:00,
2013-07-28 20:47:00,65.9,59.9,29.45,SW,232,7.0,8.0,81,0.00,,,0.00,WeatherCatV1.20B785,2013-07-28 19:47:00,
2013-07-28 20:52:00,65.8,59.8,29.46,SW,217,3.0,7.0,81,0.00,,,0.00,WeatherCatV1.20B785,2013-07-28 19:52:00,
2013-07-28 20:57:00,65.5,59.8,29.46,SW,217,6.0,6.0,82,0.00,,,0.00,WeatherCatV1.20B785,2013-07-28 19:57:00,
2013-07-28 21:02:00,65.2,59.6,29.46,SW,221,3.0,6.0,82,0.00,,,0.00,WeatherCatV1.20B785,2013-07-28 20:02:00,
2013-07-28 21:07:00,65.0,59.7,29.46,SW,224,7.0,8.0,83,0.00,,,0.00,WeatherCatV1.20B785,2013-07-28 20:07:00,
2013-07-28 21:12:00,64.8,59.5,29.46,SW,225,5.0,8.0,83,0.00,,,0.00,WeatherCatV1.20B785,2013-07-28 20:12:00,
2013-07-28 21:17:00,64.8,59.5,29.46,SSW,207,3.0,7.0,83,0.00,,,0.00,WeatherCatV1.20B785,2013-07-28 20:17:00,
2013-07-28 21:22:00,64.7,59.8,29.46,SSW,194,7.0,7.0,84,0.00,,,0.00,WeatherCatV1.20B785,2013-07-28 20:22:00,
2013-07-28 21:27:00,64.7,59.4,29.46,SW,214,7.0,9.0,83,0.00,,,0.00,WeatherCatV1.20B785,2013-07-28 20:27:00,
2013-07-28 21:32:00,64.7,59.1,29.46,SSW,205,4.0,8.0,82,0.00,,,0.00,WeatherCatV1.20B785,2013-07-28 20:32:00,
2013-07-28 21:37:00,64.7,59.4,29.47,SW,226,4.0,4.0,83,0.00,,,0.00,WeatherCatV1.20B785,2013-07-28 20:37:00,
2013-07-28 21:42:00,64.7,59.8,29.47,SW,220,7.0,9.0,84,0.00,,,0.00,WeatherCatV1.20B785,2013-07-28 20:42:00,
2013-07-28 21:47:00,64.5,59.9,29.47,WSW,245,3.0,6.0,85,0.00,,,0.00,WeatherCatV1.20B785,2013-07-28 20:47:00,
2013-07-28 21:52:00,64.4,59.8,29.47,SW,236,6.0,8.0,85,0.00,,,0.00,WeatherCatV1.20B785,2013-07-28 20:52:00,
2013-07-28 21:57:00,64.3,59.7,29.47,SSW,208,6.0,7.0,85,0.00,,,0.00,WeatherCatV1.20B785,2013-07-28 20:57:00,
2013-07-28 22:02:00,64.3,59.7,29.48,SW,226,3.0,5.0,85,0.00,,,0.00,WeatherCatV1.20B785,2013-07-28 21:02:00,
2013-07-28 22:07:00,64.2,59.6,29.48,SW,234,4.0,6.0,85,0.00,,,0.00,WeatherCatV1.20B785,2013-07-28 21:07:00,
2013-07-28 22:12:00,64.2,59.6,29.48,SW,219,5.0,5.0,85,0.00,,,0.00,WeatherCatV1.20B785,2013-07-28 21:12:00,
2013-07-28 22:17:00,64.1,59.5,29.48,SW,217,3.0,4.0,85,0.00,,,0.00,WeatherCatV1.20B785,2013-07-28 21:17:00,
2013-07-28 22:21:00,64.1,59.5,29.48,SSW,210,3.0,3.0,85,0.00,,,0.00,WeatherCatV1.21B27,2013-07-28 21:21:00,
2013-07-28 22:26:00,64.1,59.5,29.48,SSW,212,3.0,5.0,85,0.00,,,0.00,WeatherCatV1.21B27,2013-07-28 21:26:00,
2013-07-28 22:31:00,64.1,59.5,29.48,WSW,257,1.0,2.0,85,0.00,,,0.00,WeatherCatV1.21B27,2013-07-28 21:31:00,
2013-07-28 22:36:00,64.1,59.5,29.48,SSW,210,4.0,5.0,85,0.00,,,0.00,WeatherCatV1.21B27,2013-07-28 21:36:00,
2013-07-28 22:41:00,64.1,59.5,29.48,WSW,240,2.0,2.0,85,0.00,,,0.00,WeatherCatV1.21B27,2013-07-28 21:41:00,
2013-07-28 22:46:00,64.1,59.5,29.48,WSW,250,1.0,2.0,85,0.00,,,0.00,WeatherCatV1.21B27,2013-07-28 21:46:00,
2013-07-28 22:51:00,64.0,59.4,29.48,WSW,243,2.0,3.0,85,0.00,,,0.00,WeatherCatV1.21B27,2013-07-28 21:51:00,
2013-07-28 22:56:00,63.9,59.3,29.48,West,260,2.0,3.0,85,0.00,,,0.00,WeatherCatV1.21B27,2013-07-28 21:56:00,
2013-07-28 23:01:00,63.9,59.3,29.48,West,259,0.0,2.0,85,0.00,,,0.00,WeatherCatV1.21B27,2013-07-28 22:01:00,
2013-07-28 23:06:00,63.7,59.4,29.48,WSW,255,1.0,1.0,86,0.00,,,0.00,WeatherCatV1.21B27,2013-07-28 22:06:00,
2013-07-28 23:11:00,63.6,59.3,29.48,SW,236,0.0,1.0,86,0.00,,,0.00,WeatherCatV1.21B27,2013-07-28 22:11:00,
2013-07-28 23:16:00,63.3,59.0,29.48,SW,236,0.0,1.0,86,0.00,,,0.00,WeatherCatV1.21B27,2013-07-28 22:16:00,
2013-07-28 23:21:00,63.1,58.8,29.49,West,260,1.0,2.0,86,0.00,,,0.00,WeatherCatV1.21B27,2013-07-28 22:21:00,
2013-07-28 23:26:00,63.0,58.4,29.49,SW,221,1.0,1.0,85,0.00,,,0.00,WeatherCatV1.21B27,2013-07-28 22:26:00,
2013-07-28 23:31:00,62.9,58.6,29.48,WSW,250,1.0,1.0,86,0.00,,,0.00,WeatherCatV1.21B27,2013-07-28 22:31:00,
2013-07-28 23:36:00,62.8,58.5,29.48,SSW,205,2.0,2.0,86,0.00,,,0.00,WeatherCatV1.21B27,2013-07-28 22:36:00,
2013-07-28 23:41:00,62.7,58.5,29.49,SSW,208,0.0,2.0,86,0.00,,,0.00,WeatherCatV1.21B27,2013-07-28 22:41:00,
2013-07-28 23:46:00,62.7,58.5,29.49,SW,233,2.0,3.0,86,0.00,,,0.00,WeatherCatV1.21B27,2013-07-28 22:46:00,
2013-07-28 23:51:00,62.7,58.5,29.49,WSW,243,4.0,4.0,86,0.00,,,0.00,WeatherCatV1.21B27,2013-07-28 22:51:00,
2013-07-28 23:56:00,62.7,58.5,29.49,WSW,239,6.0,8.0,86,0.00,,,0.00,WeatherCatV1.21B27,2013-07-28 22:56:00,